This is the latest recevied weather packets stored in our database for station/object SR9NLI. If no packets are shown the sender has not sent any weather packets the latest 10 day(s).
| Time | Temp. | Humidity | Pressure | Rain* | Wind** | Luminosity | Snow |
|---|---|---|---|---|---|---|---|
| 1777859392 | 8.89° C | 100% | 957.6 hPa | - | - | - | - |
| 1777859268 | 8.89° C | 100% | 957.5 hPa | - | - | - | - |
| 1777859207 | 8.89° C | 100% | 957.5 hPa | - | - | - | - |
| 1777859145 | 8.89° C | 100% | 957.5 hPa | - | - | - | - |
| 1777859022 | 9.44° C | 100% | 957.6 hPa | - | - | - | - |
| 1777858899 | 9.44° C | 100% | 957.6 hPa | - | - | - | - |
| 1777858838 | 8.89° C | 100% | 957.6 hPa | - | - | - | - |
| 1777858776 | 8.89° C | 100% | 957.6 hPa | - | - | - | - |
| 1777858653 | 8.33° C | 100% | 957.6 hPa | - | - | - | - |
| 1777858530 | 8.33° C | 100% | 957.7 hPa | - | - | - | - |
| 1777858469 | 8.33° C | 100% | 957.7 hPa | - | - | - | - |
| 1777858406 | 8.33° C | 100% | 957.7 hPa | - | - | - | - |
| 1777858283 | 8.89° C | 100% | 957.7 hPa | - | - | - | - |
| 1777858161 | 8.89° C | 100% | 957.8 hPa | - | - | - | - |
| 1777858120 | 8.89° C | 100% | 957.8 hPa | - | - | - | - |
| 1777858037 | 8.89° C | 100% | 957.8 hPa | - | - | - | - |
| 1777857915 | 10° C | 100% | 957.8 hPa | - | - | - | - |
| 1777857792 | 10.56° C | 100% | 957.8 hPa | - | - | - | - |
| 1777857731 | 10.56° C | 100% | 957.7 hPa | - | - | - | - |
| 1777857668 | 10° C | 100% | 957.8 hPa | - | - | - | - |
| 1777857545 | 10° C | 100% | 957.7 hPa | - | - | - | - |
| 1777857422 | 8.89° C | 100% | 957.9 hPa | - | - | - | - |
| 1777857362 | 8.89° C | 100% | 957.8 hPa | - | - | - | - |
| 1777857299 | 8.89° C | 100% | 957.9 hPa | - | - | - | - |
| 1777857176 | 9.44° C | 100% | 957.9 hPa | - | - | - | - |
* Rain since midnight (hover to see other rain measurements)
** Current wind speed in m/s (hover to see current wind gust speed)